Location: Hylo
(54.6785°N, 112.2142°W)
Time: 12:05:03
(UTC+00:00)

ACS3 Solar Sail - Pass Details

Date: 28 September 2024
Orbit: 961 x 1035 km, 97.4° (Epoch: 08 October)

Event Time Altitude Azimuth Distance (km) Brightness Sun altitude
Exits shadow 05:45:08 - 239° (WSW) 3,606 4.7 -34.1°
Reaches altitude 10° 05:49:17 10° 268° (W) 2,842 4.5 -34.4°
Maximum altitude 05:51:11 11° 285° (WNW) 2,744 4.6 -34.6°
Drops below altitude 10° 05:53:05 10° 303° (WNW) 2,840 4.8 -34.7°
Sets 05:57:59 0° 336° (NNW) 3,786 5.9 -35.0°
